Havre, MT

9:50 AM MDT on August 20, 2017 (GMT -0600)
Havre City-County

Weather History for KHVR - February, 2014

Change the Weather History Date:

Tuesday, February 18, 2014

  Actual Average Record
Temperature  
Mean Temperature 37 °F 23 °F  
Max Temperature 44 °F 34 °F 62 °F (1930)
Min Temperature 29 °F 11 °F -36 °F (1929)
Degree Days  
Heating Degree Days 28 42  
Month to date heating degree days 962 790  
Since 1 July heating degree days 5740 5713  
Cooling Degree Days 0 0  
Month to date cooling degree days 0 0  
Year to date cooling degree days 0 0  
Moisture  
Dew Point 27 °F    
Average Humidity 73    
Maximum Humidity 96    
Minimum Humidity 49    
Precipitation  
Precipitation 0.04 in 0.01 in 0.12 in (1957)
Month to date precipitation 0.15 0.17  
Year to date precipitation 0.57 0.50  
Snow  
Snow T in 0.30 in 3.10 in (1957)
Month to date snowfall 3.1 3.7  
Since 1 July snowfall 36.3 25.8  
Snow Depth T in    
Sea Level Pressure  
Sea Level Pressure 29.69 in    
Wind  
Wind Speed 13 mph (WSW)    
Max Wind Speed 30 mph    
Max Gust Speed 36 mph    
Visibility 9 miles    
Events Rain , Snow    
T = Trace of Precipitation, MM = Missing Value Source: NWS Daily Summary

Daily Weather History Graph

Daily Weather History Graph

Search for Another Location

Airport or City:

Trip Planner

Search our weather history database for the weather conditions in past years. The results will help you decide how hot, cold, wet, or windy it might be!

Date:

Astronomy

Feb. 18, 2014 Rise Set
Actual Time 7:21 AM MST 5:45 PM MST
Civil Twilight 6:48 AM MST 6:17 PM MST
Nautical Twilight 6:12 AM MST 6:54 PM MST
Astronomical Twilight 5:36 AM MST 7:30 PM MST
Moon 10:05 PM MST (2/18) 8:34 AM MST (2/18)
Length of Visible Light 11h 28m
Length of Day
10h 24m
Waning Gibbous, 87% of the Moon is Illuminated
Feb 18
Waning Gibbous
Feb 22
Last Quarter
Mar 1
New
Mar 8
First Quarter
Mar 16
Full

Hourly Weather History & Observations

Time (MST) Temp. Windchill Dew Point Humidity Pressure Visibility Wind Dir Wind Speed Gust Speed Precip Events Conditions
12:19 AM 35.1 °F 24.8 °F 30.9 °F 85% 29.53 in 8.0 mi West 17.3 mph - 0.01 in Snow Light Snow
12:38 AM 35.1 °F 24.8 °F 32.0 °F 89% 29.54 in 10.0 mi West 17.3 mph - 0.01 in Rain Light Rain
12:53 AM 34.0 °F 24.6 °F 32.0 °F 92% 29.59 in 6.0 mi West 13.8 mph - 0.02 in Snow Light Snow
1:04 AM 33.1 °F 23.9 °F 30.9 °F 92% 29.55 in 1.8 mi WSW 12.7 mph - 0.01 in Snow Light Snow
1:11 AM 33.1 °F 23.4 °F 32.0 °F 96% 29.55 in 2.0 mi WSW 13.8 mph - 0.02 in Snow Light Snow
1:20 AM 33.1 °F 23.0 °F 32.0 °F 96% 29.55 in 9.0 mi WSW 15.0 mph - 0.02 in Snow Light Snow
1:33 AM 33.1 °F 24.9 °F 32.0 °F 96% 29.56 in 10.0 mi WSW 10.4 mph - 0.02 in   Overcast
1:53 AM 33.1 °F 23.4 °F 32.0 °F 96% 29.62 in 10.0 mi SW 13.8 mph - 0.02 in   Mostly Cloudy
2:53 AM 33.1 °F 26.9 °F 30.9 °F 92% 29.65 in 10.0 mi SW 6.9 mph - N/A   Partly Cloudy
3:53 AM 32.0 °F 22.5 °F 28.0 °F 85% 29.68 in 10.0 mi WSW 12.7 mph - N/A   Mostly Cloudy
4:53 AM 30.9 °F 20.7 °F 25.0 °F 79% 29.72 in 10.0 mi WSW 13.8 mph - N/A   Mostly Cloudy
5:53 AM 30.9 °F 22.8 °F 24.1 °F 76% 29.77 in 10.0 mi WNW 9.2 mph - N/A   Mostly Cloudy
6:53 AM 28.9 °F 18.6 °F 23.0 °F 78% 29.81 in 10.0 mi WSW 12.7 mph - N/A   Overcast
7:53 AM 30.0 °F 18.7 °F 23.0 °F 75% 29.83 in 10.0 mi WSW 16.1 mph - N/A   Overcast
8:53 AM 30.9 °F 18.7 °F 24.1 °F 76% 29.85 in 10.0 mi West 19.6 mph - N/A   Overcast
9:53 AM 33.1 °F 21.5 °F 26.1 °F 75% 29.87 in 10.0 mi WSW 19.6 mph - N/A   Mostly Cloudy
10:53 AM 36.0 °F 25.6 °F 28.0 °F 73% 29.87 in 10.0 mi West 18.4 mph - N/A   Partly Cloudy
11:53 AM 39.0 °F 28.8 °F 26.1 °F 60% 29.86 in 10.0 mi West 21.9 mph 29.9 mph N/A   Clear
12:53 PM 39.9 °F 30.0 °F 26.1 °F 58% 29.86 in 10.0 mi West 21.9 mph 29.9 mph N/A   Clear
1:53 PM 42.1 °F 32.3 °F 24.1 °F 49% 29.84 in 10.0 mi West 24.2 mph - N/A   Clear
2:53 PM 42.1 °F 33.9 °F 24.1 °F 49% 29.82 in 10.0 mi West 17.3 mph 28.8 mph N/A   Clear
3:53 PM 42.1 °F 33.9 °F 24.1 °F 49% 29.81 in 10.0 mi West 17.3 mph - N/A   Clear
4:53 PM 41.0 °F 34.3 °F 25.0 °F 53% 29.79 in 10.0 mi West 11.5 mph - N/A   Clear
5:53 PM 33.1 °F 26.1 °F 26.1 °F 75% 29.77 in 10.0 mi South 8.1 mph - N/A   Clear
6:53 PM 30.9 °F 22.8 °F 25.0 °F 79% 29.73 in 10.0 mi South 9.2 mph - N/A   Clear
7:53 PM 34.0 °F 31.0 °F 25.0 °F 70% 29.68 in 10.0 mi West 3.5 mph - N/A   Clear
8:53 PM 37.0 °F - 24.1 °F 59% 29.61 in 10.0 mi Calm Calm - N/A   Clear
9:53 PM 36.0 °F 30.3 °F 26.1 °F 67% 29.57 in 10.0 mi East 6.9 mph - N/A   Overcast
10:53 PM 37.9 °F 35.5 °F 25.0 °F 60% 29.50 in 10.0 mi Variable 3.5 mph - N/A   Overcast
11:38 PM 43.0 °F 36.4 °F 23.0 °F 45% 29.40 in 10.0 mi South 12.7 mph - N/A   Mostly Cloudy
11:53 PM 43.0 °F 36.0 °F 23.0 °F 45% 29.43 in 10.0 mi SSW 13.8 mph - N/A   Scattered Clouds